Location: Virginia Beach
(36.8530°N, 75.9780°W)
Time: 03:21:00
(UTC-05:00)

ISS - Visible Passes

Search period start: 19 February 2019 00:00
Search period end: 01 March 2019 00:00
Orbit: 403 x 411 km, 51.6° (Epoch: 19 February)

Date Brightness Start Highest point End Pass type
(mag) Time Alt. Az. Time Alt. Az. Time Alt. Az.
20 Feb -0.8 06:05:42 10° S 06:07:49 16° SE 06:09:54 10° E visible
22 Feb -2.7 05:58:00 10° SSW 06:01:08 44° SE 06:04:16 10° ENE visible
23 Feb -1.5 05:07:30 12° S 05:09:46 22° SE 05:12:20 10° ENE visible
24 Feb -0.5 04:18:56 11° ESE 04:18:56 11° ESE 04:19:21 10° ESE visible
24 Feb -3.8 05:51:41 12° WSW 05:54:34 61° NW 05:57:48 10° NE visible
25 Feb -3.6 05:02:51 61° SSE 05:03:03 63° SE 05:06:17 10° NE visible
26 Feb -0.6 04:13:49 14° ENE 04:13:49 14° ENE 04:14:31 10° ENE visible
26 Feb -2.5 05:46:33 18° WNW 05:48:07 26° NNW 05:50:56 10° NNE visible
27 Feb -2.7 04:57:21 35° N 04:57:21 35° N 04:59:38 10° NE visible
28 Feb -0.4 04:08:02 11° NE 04:08:02 11° NE 04:08:10 10° NE visible
28 Feb -1.7 05:40:45 13° NW 05:41:48 14° NNW 05:43:39 10° N visible
